Terminal Aerodrome Forecast
Issued by NWS

Home | Current Version | Previous Version | Text Only | Print | Product List | Glossary On
Versions: 1 2 3 4 5 6 7 8 9 10 11 12 13 14 15 16 17
000
FTAK31 PAJN 211100
TAFAYA
TAF
PAYA 211122Z 2112/2212 04003KT P6SM SCT100
      TEMPO 2113/2117 4SM BR SCT004 SCT100
     FM211700 05006KT P6SM BKN100
     FM212100 09005KT P6SM BKN050 BKN100
     FM220600 08009KT P6SM SCT025 OVC050
      AMD LTD TO CLD VIS AND WIND 2201/2210=

USA.gov is the U.S. government's official web portal to all federal, state and local government web resources and services.